Flag for India

Past Weather in Firozpur, Punjab, India — Yesterday and Last 2 Weeks

Now
75 °F

Partly cloudy.


Feels Like: 74 °F
Forecast: 93 / 84 °F
Wind: 17 mph from East

Location: Lahore Airport

Current Time: Jul 5, 2020 at 1:15:33 am

Latest Report: Jul 5, 2020 at 12:25 am


Visibility: 2 mi

Pressure: 29.42 "Hg

Humidity: 94%

Dew Point: 73 °F

Location of FirozpurLocation

Past Weather in Firozpur — Graph

°F

Firozpur Temperature Yesterday

Maximum temperature yesterday: 99 °F (at 3:25 pm)
Minimum temperature yesterday: 77 °F (at 8:25 pm)
Average temperature yesterday: 90 °F

High & Low Weather Summary for the Past Weeks

 TemperatureHumidityPressure
High109 °F (Jul 3, 2:25 pm)94% (Jun 25, 7:55 am)29.71 "Hg (Jun 25, 7:55 am)
Low72 °F (Jun 29, 6:55 am)30% (Jun 23, 9:55 pm)29.36 "Hg (Jul 2, 4:25 pm)
Average91 °F60%29.51 "Hg
* Reported Jun 20 12:25 am — Jul 4 11:55 pm, Firozpur. Weather by CustomWeather, © 2020

Note: Actual official high and low records may vary slightly from our data, if they occured in-between our weather recording intervals... More about our weather records

Firozpur Weather History for the Previous 24 Hours

Scroll right to see more
 ConditionsComfort  
Time TempWeatherWind HumidityBarometerVisibility
11:55 pm
Sat, Jul 4
77 °FPartly cloudy.17 mph89%29.42 "Hg2 mi
11:25 pm77 °FThunderstorms. Mostly cloudy.17 mph89%29.42 "Hg2 mi
10:55 pm77 °FThunderstorms. Mostly cloudy.23 mph89%29.45 "Hg2 mi
10:25 pm77 °FThunderstorms. Mostly cloudy.25 mph89%29.50 "Hg2 mi
9:55 pm77 °FThunderstorms. Mostly cloudy.32 mph89%29.56 "Hg2 mi
9:25 pm77 °FThunderstorms. Mostly cloudy.35 mph89%29.56 "Hg2 mi
8:55 pm77 °FThunderstorms. Mostly cloudy.29 mph89%29.47 "Hg2 mi
8:25 pm77 °FThunderstorms. Mostly cloudy.29 mph89%29.47 "Hg2 mi
7:55 pm79 °FThunderstorms. Mostly cloudy.35 mph89%29.45 "Hg1 mi
7:25 pm86 °FThunderstorms. More clouds than sun.46 mph79%N/A1 mi
7:02 pm95 °FBroken clouds.40 mph60%29.36 "Hg1 mi
6:25 pm97 °FScattered clouds.12 mph56%29.36 "Hg2 mi
5:55 pm99 °FScattered clouds.16 mph53%29.36 "Hg2 mi
5:25 pm99 °FScattered clouds.12 mph53%29.36 "Hg3 mi
4:55 pm99 °FClear.14 mph50%29.36 "Hg3 mi
4:25 pm99 °FClear.12 mph50%29.36 "Hg3 mi
3:55 pm99 °FClear.12 mph53%29.39 "Hg3 mi
3:25 pm99 °FClear.16 mph53%29.39 "Hg3 mi
2:55 pm97 °FClear.16 mph56%29.42 "Hg3 mi
2:25 pm97 °FClear.12 mph50%29.42 "Hg3 mi
1:55 pm97 °FClear.16 mph56%29.45 "Hg3 mi
1:25 pm97 °FClear.16 mph56%29.45 "Hg3 mi
12:55 pm95 °FClear.16 mph56%29.47 "Hg3 mi
12:25 pm95 °FClear.15 mph56%29.47 "Hg3 mi
11:55 am95 °FClear.15 mph56%29.47 "Hg3 mi
11:25 am93 °FClear.16 mph59%29.47 "Hg3 mi
10:55 am93 °FClear.16 mph63%29.45 "Hg3 mi
10:25 am91 °FClear.16 mph67%29.45 "Hg3 mi
9:55 am91 °FClear.18 mph63%29.47 "Hg2 mi
9:25 am90 °FClear.17 mph67%29.47 "Hg2 mi
8:55 am90 °FClear.16 mph63%29.47 "Hg2 mi
8:25 am90 °FClear.14 mph63%29.47 "Hg2 mi
7:55 am88 °FPassing clouds.14 mph70%29.47 "Hg2 mi
7:25 am88 °FPassing clouds.12 mph70%29.47 "Hg2 mi
6:25 am88 °FClear.10 mph70%29.45 "Hg2 mi
5:55 am88 °FClear.10 mph66%29.42 "Hg2 mi
5:29 am90 °FClear.9 mph63%29.45 "Hg3 mi
4:55 am90 °FClear.8 mph59%29.39 "Hg2 mi
4:25 am90 °FClear.9 mph59%29.39 "Hg3 mi
3:55 am90 °FClear.10 mph59%29.39 "Hg3 mi
3:25 am90 °FClear.3 mph59%29.39 "Hg3 mi
2:55 am91 °FClear.3 mph59%29.39 "Hg3 mi
2:25 am91 °FClear.5 mph59%29.42 "Hg3 mi
1:55 am93 °FClear.6 mph56%29.42 "Hg3 mi
1:29 am93 °FClear.5 mph56%29.42 "Hg3 mi
Weather by CustomWeather, © 2020

See weather overview